[[{"header":{"parameterUnit":"m.s-1","parameterCategory":1,"la1":30.2991,"la2":30.254,"lo1":-89.0895,"lo2":-89.0444,"dx":0.0017,"dy":0.0017,"nx":28,"ny":28,"refTime":"2022-12-13T15:00:00:Z","depth":0,"parameterNumber":2,"parameterNumberName":"U-component_of_WINDS"},"data":[0,0,0,0,0,0,0,0,0,0,0,0,0,0,0,0,0,0,0,0,0,0,0,0,0,0,0,0,0,0,0,0,0,0,0,0,0,0,0,0,0,0,0,0,0,0,0,0,0,0,0,0,0,0,0,0,0,0,-5.2903,-5.2905,0,-5.3045,-5.3046,-5.3048,-5.299,-5.2986,-5.2983,-5.298,-5.3131,-5.3138,-5.3145,0,0,0,0,0,0,0,0,0,0,0,0,0,-5.259,-5.2596,-5.2903,-5.2905,-5.2907,-5.3044,-5.3046,-5.3048,-5.299,-5.2986,-5.2982,-5.2978,-5.3128,-5.3137,-5.3145,0,0,0,0,0,0,0,0,0,0,0,0,0,-5.2729,-5.2598,-5.2903,-5.2894,-5.2895,-5.3044,-5.3046,-5.3049,-5.2991,-5.2986,-5.2981,-5.2976,-5.3125,-5.3136,-5.3146,-5.3315,0,0,-5.3179,-5.3184,0,0,0,0,0,0,0,0,-5.2721,-5.274,-5.2894,-5.2895,-5.2896,-5.2994,-5.2991,-5.3138,-5.2992,-5.2955,-5.298,-5.2974,-5.309,-5.3103,-5.3141,-5.3322,-5.3328,-5.318,-5.3187,-5.3191,-5.3194,0,0,0,0,0,0,0,-5.2711,-5.2734,-5.2959,-5.2896,-5.2898,-5.2886,-5.29,-5.3019,-5.3049,-5.2958,-5.2954,-5.2971,-5.3089,-5.3131,-5.3144,-5.333,-5.318,-5.319,-5.3196,-5.32,-5.366,-5.3665,0,0,0,0,0,0,-5.2701,-5.2726,-5.2955,-5.2964,-5.2794,-5.2895,-5.2911,-5.2968,-5.3048,-5.3055,-5.2975,-5.2968,-5.3115,-5.3132,-5.3149,-5.3353,-5.3191,-5.3201,-5.3208,-5.3654,-5.3661,-5.3667,0,0,0,0,0,0,-5.2694,-5.2721,-5.2949,-5.2844,-5.2872,-5.2906,-5.2971,-5.2973,-5.3014,-5.3061,-5.3067,-5.3011,-5.3111,-5.3134,-5.3274,-5.3357,-5.3206,-5.3216,-5.3647,-5.3656,-5.3664,-5.3761,0,0,0,0,0,0,-5.2685,-5.2719,-5.2782,-5.2846,-5.2878,-5.307,-5.2976,-5.298,-5.3032,-5.3024,-5.3096,-5.3103,-5.3109,-5.3258,-5.3285,-5.3369,-5.3224,-5.364,-5.3651,-5.3661,-5.3751,-5.3772,-5.379,0,0,0,0,0,-5.2674,-5.2804,-5.2785,-5.2813,-5.2956,-5.3074,-5.3093,-5.3095,-5.3039,-5.3104,-5.3134,-5.3101,-5.3344,-5.3273,-5.3303,-5.3392,-5.3635,-5.3648,-5.3661,-5.3742,-5.3768,-5.379,0,0,0,0,0,0,-5.275,-5.2812,-5.2792,-5.2945,-5.3005,-5.3064,-5.3145,-5.3122,-5.32,-5.319,-5.3191,-5.3208,-5.3353,-5.3387,-5.3307,-5.356,-5.3481,-5.3501,-5.3533,-5.3558,-5.3578,-5.3567,-5.3233,0,0,0,0,0,-5.2784,-5.2873,-5.2924,-5.3055,-5.3085,-5.3111,-5.3162,-5.3159,-5.3221,-5.3247,-5.3287,-5.3351,-5.3442,-5.3502,-5.3588,-5.3755,-5.3772,-5.3832,-5.3851,-5.3867,-5.3884,-5.3978,-5.4006,-5.371,-5.371,-5.3709,0,0,-5.2857,-5.2902,-5.2958,-5.3071,-5.3117,-5.3212,-5.3132,-5.3235,-5.3306,-5.3263,-5.3398,-5.343,-5.3502,-5.3657,-5.3727,-5.3689,-5.397,-5.3884,-5.3896,-5.3905,-5.3994,-5.4022,-5.4047,-5.3718,-5.3717,-5.3715,0,0,-5.3037,-5.3079,-5.3193,-5.3241,-5.3311,-5.3327,-5.3355,-5.3419,-5.3438,-5.3573,-5.3544,-5.363,-5.3786,-5.3839,-5.3886,-5.409,-5.4064,-5.4118,-5.4222,-5.4314,-5.4337,-5.4358,-5.4432,-5.4459,-5.4135,-5.4135,-5.4136,0,-5.3118,-5.3257,-5.3256,-5.3362,-5.3414,-5.3378,-5.3496,-5.3544,-5.3639,-5.3677,-5.3633,-5.3829,-5.3875,-5.4043,-5.4093,-5.4132,-5.4166,-5.411,-5.4333,-5.4354,-5.4373,-5.4445,-5.4473,-5.4142,-5.4141,-5.414,-5.414,0,-5.3355,-5.3453,-5.3537,-5.3629,-5.3691,-5.3803,-5.3821,-5.3884,-5.3876,-5.3898,-5.4038,-5.4092,-5.419,-5.4229,-5.4223,-5.4399,-5.4373,-5.4331,-5.4252,-5.4408,-5.4475,-5.4502,-5.4151,-5.4148,-5.4146,-5.4145,0,0,-5.3585,-5.3676,-5.3708,-5.375,-5.3826,-5.3903,-5.4015,-5.4108,-5.4164,-5.4232,-5.4327,-5.4461,-5.4424,-5.4478,-5.4478,-5.4558,-5.4719,-5.4507,-5.4509,-5.4546,-5.4919,-5.495,-5.4981,-5.4702,-5.4708,-5.4712,-5.4913,0,-5.3772,-5.3965,-5.3968,-5.4147,-5.4239,-5.4208,-5.4306,-5.4365,-5.439,-5.4473,-5.4501,-5.4597,-5.4539,-5.4572,-5.465,-5.4683,-5.4794,-5.4669,-5.4794,-5.4798,-5.4777,-5.5016,-5.5049,-5.5236,-5.4939,-5.4943,-5.4947,0,-5.4015,-5.409,-5.4277,-5.4343,-5.4381,-5.4469,-5.4557,-5.4636,-5.4704,-5.4716,-5.4778,-5.4767,-5.4884,-5.4802,-5.4965,-5.488,-5.4932,-5.4956,-5.4964,-5.4976,-5.4882,-5.5036,-5.5295,-5.5324,-5.4988,-5.4984,-5.4981,0,-5.4166,-5.4314,-5.4446,-5.4483,-5.4562,-5.4625,-5.4661,-5.4723,-5.4781,-5.4859,-5.4897,-5.4988,-5.5038,-5.5111,-5.5126,-5.5064,-5.5291,-5.5209,-5.5307,-5.5307,-5.5356,-5.5353,-5.5628,-5.5388,-5.5388,-5.5387,-5.5387,0,-5.4374,-5.449,-5.4515,-5.4596,-5.4726,-5.4731,-5.4861,-5.4893,-5.495,-5.5039,-5.5019,-5.5104,-5.5118,-5.5207,-5.522,-5.5355,-5.5378,-5.5393,-5.5395,-5.5395,-5.5394,-5.5429,-5.5417,-5.5395,-5.5393,-5.5392,-5.5391,0,-5.4564,-5.4584,-5.4727,-5.479,-5.4809,-5.4903,-5.4959,-5.5038,-5.5061,-5.5175,-5.5202,-5.5239,-5.5343,-5.5365,-5.5489,-5.5498,-5.5659,-5.5648,-5.5635,-5.5634,-5.5732,-5.5723,-5.6041,-5.6083,-5.5815,-5.5817,-5.5819,0,-5.4695,-5.4784,-5.4858,-5.4915,-5.4954,-5.5047,-5.5106,-5.5115,-5.5177,-5.5263,-5.5333,-5.5435,-5.5516,-5.5685,-5.5724,-5.582,-5.5812,-5.5917,-5.5826,-5.5824,-5.5815,-5.581,-5.582,-5.5934,-5.5937,-5.5939,-5.5941,0,-5.4928,-5.4934,-5.5018,-5.5107,-5.5177,-5.5248,-5.5315,-5.5364,-5.5383,-5.5455,-5.556,-5.5623,-5.575,-5.5852,-5.5948,-5.5989,-5.597,-5.597,-5.5998,-5.5998,-5.5988,-5.5996,-5.5683,-5.5962,-5.596,-5.5958,-5.5957,-5.5956,-5.5093,-5.5172,-5.5236,-5.5331,-5.5383,-5.5447,-5.5525,-5.5558,-5.5646,-5.5748,-5.5749,-5.5865,-5.5935,-5.6061,-5.6108,-5.6201,-5.6168,-5.6209,-5.6219,-5.6229,-5.6238,-5.5973,-5.6219,-5.6218,-5.6217,-5.6217,-5.6217,0,-5.5325,-5.5366,-5.5453,-5.5548,-5.5624,-5.5598,-5.5672,-5.5738,-5.5839,-5.5904,-5.5985,-5.6108,-5.6208,-5.6257,-5.6356,-5.6421,-5.6415,-5.6447,-5.6443,-5.6453,-5.6261,-5.6227,-5.6451,-5.6451,-5.6451,-5.645,-5.645,-5.645,-5.5455,-5.5586,-5.5601,-5.576,-5.58,-5.5912,-5.5957,-5.6018,-5.607,-5.6207,-5.6289,-5.632,-5.638,-5.6484,-5.6576,-5.6588,-5.6626,-5.6662,-5.667,-5.649,-5.6466,-5.6443,-5.6412,-5.667,-5.6671,-5.6855,-5.6856,-5.6858]},{"header":{"parameterUnit":"m.s-1","parameterCategory":1,"la1":30.2991,"la2":30.254,"lo1":-89.0895,"lo2":-89.0444,"dx":0.0017,"dy":0.0017,"nx":28,"ny":28,"refTime":"2022-12-13T15:00:00:Z","depth":0,"parameterNumber":3,"parameterNumberName":"V-component_of_WINDS"},"data":[0,0,0,0,0,0,0,0,0,0,0,0,0,0,0,0,0,0,0,0,0,0,0,0,0,0,0,0,0,0,0,0,0,0,0,0,0,0,0,0,0,0,0,0,0,0,0,0,0,0,0,0,0,0,0,0,0,0,0.052,0.052,0,0.0527,0.0527,0.0528,0.0564,0.0565,0.0566,0.0567,0.0575,0.0574,0.0573,0,0,0,0,0,0,0,0,0,0,0,0,0,0.0539,0.0539,0.052,0.052,0.052,0.0527,0.0527,0.0528,0.0564,0.0565,0.0566,0.0567,0.0575,0.0574,0.0573,0,0,0,0,0,0,0,0,0,0,0,0,0,0.0537,0.0538,0.052,0.0539,0.0541,0.0527,0.0527,0.0528,0.0564,0.0565,0.0566,0.0568,0.0575,0.0574,0.0573,0.0542,0,0,0.057,0.057,0,0,0,0,0,0,0,0,0.0537,0.0536,0.0536,0.0538,0.054,0.0546,0.0537,0.0532,0.0563,0.0555,0.0567,0.0568,0.0564,0.0564,0.0563,0.0542,0.0542,0.057,0.057,0.0569,0.0569,0,0,0,0,0,0,0,0.0537,0.0536,0.0523,0.0536,0.0538,0.0548,0.0549,0.0536,0.0552,0.0556,0.0559,0.0559,0.0565,0.0563,0.0563,0.0542,0.057,0.057,0.0569,0.0569,0.0498,0.0497,0,0,0,0,0,0,0.0535,0.0536,0.0523,0.0523,0.0542,0.0547,0.0548,0.0543,0.0552,0.0555,0.0558,0.0561,0.0564,0.0564,0.0564,0.0528,0.0569,0.0569,0.0568,0.05,0.0498,0.0497,0,0,0,0,0,0,0.0535,0.0533,0.0522,0.053,0.053,0.0545,0.0539,0.0542,0.054,0.0554,0.0557,0.0553,0.0565,0.0565,0.0547,0.0529,0.0568,0.0567,0.0501,0.0499,0.0497,0.0457,0,0,0,0,0,0,0.0535,0.0533,0.052,0.053,0.0529,0.0505,0.0538,0.0541,0.0539,0.0542,0.055,0.0553,0.0566,0.0548,0.0546,0.0529,0.0567,0.0503,0.05,0.0498,0.046,0.0454,0.0448,0,0,0,0,0,0.0536,0.0508,0.052,0.0518,0.0514,0.0504,0.0504,0.052,0.0537,0.0525,0.0534,0.0552,0.0531,0.0546,0.0544,0.0526,0.0504,0.0501,0.0498,0.0462,0.0455,0.0448,0,0,0,0,0,0,0.0496,0.051,0.0522,0.0497,0.0499,0.051,0.0495,0.0511,0.0508,0.0512,0.0533,0.0534,0.0514,0.0518,0.0534,0.0497,0.0521,0.0517,0.0494,0.0487,0.0482,0.0481,0.0566,0,0,0,0,0,0.0484,0.0475,0.0488,0.0464,0.0465,0.048,0.0476,0.0489,0.0492,0.0493,0.05,0.0503,0.0497,0.0492,0.0488,0.0461,0.0464,0.0448,0.0442,0.0437,0.0434,0.0421,0.0414,0.0487,0.0487,0.0487,0,0,0.046,0.0467,0.0459,0.0456,0.0459,0.045,0.048,0.0468,0.0462,0.0491,0.0475,0.0481,0.0485,0.0463,0.0454,0.0466,0.0415,0.0433,0.0429,0.0429,0.0417,0.0411,0.0404,0.0485,0.0485,0.0485,0,0,0.0411,0.0414,0.0396,0.0399,0.0403,0.0414,0.041,0.0419,0.0424,0.0408,0.043,0.0423,0.0412,0.0415,0.0414,0.0368,0.0385,0.0366,0.0336,0.0324,0.0318,0.0313,0.0298,0.0292,0.0363,0.0363,0.0363,0,0.038,0.0366,0.0384,0.0372,0.037,0.0397,0.0379,0.0381,0.0383,0.0382,0.0396,0.0384,0.0389,0.0369,0.0358,0.0356,0.0353,0.0365,0.0318,0.0313,0.0308,0.0294,0.0288,0.0361,0.0361,0.0361,0.0361,0,0.0328,0.0319,0.0303,0.0306,0.0303,0.0287,0.0304,0.0299,0.0312,0.0322,0.0307,0.0313,0.0311,0.0307,0.032,0.0289,0.0297,0.0314,0.0339,0.0299,0.0286,0.028,0.0357,0.0358,0.0359,0.0359,0,0,0.0253,0.0267,0.0261,0.0263,0.0271,0.0264,0.0251,0.0249,0.0245,0.0246,0.0236,0.0227,0.0243,0.0243,0.0257,0.0246,0.021,0.0264,0.0265,0.0254,0.0178,0.0165,0.0158,0.0222,0.0221,0.022,0.0178,0,0.0206,0.0184,0.0201,0.0176,0.0167,0.0194,0.0182,0.0186,0.0195,0.019,0.02,0.0194,0.0215,0.0216,0.0206,0.0216,0.0195,0.022,0.0213,0.0212,0.0211,0.0151,0.0137,0.0097,0.0172,0.0171,0.0171,0,0.0149,0.0148,0.0122,0.0133,0.0131,0.012,0.012,0.0115,0.0121,0.0128,0.0129,0.0146,0.0134,0.0159,0.0144,0.016,0.0159,0.0163,0.0162,0.0162,0.0189,0.0149,0.0084,0.0078,0.0163,0.0163,0.0164,0,0.0097,0.009,0.0074,0.0075,0.0087,0.0079,0.0084,0.0091,0.009,0.009,0.009,0.0089,0.0088,0.0088,0.0104,0.0121,0.0088,0.0113,0.0094,0.0094,0.0085,0.0086,0.0019,0.0084,0.0084,0.0084,0.0085,0,0.0043,0.0026,0.0051,0.0041,0.0024,0.0044,0.0026,0.0034,0.004,0.0033,0.0056,0.0048,0.0071,0.0066,0.0079,0.0065,0.0065,0.0071,0.0075,0.0069,0.0068,0.0068,0.0071,0.0083,0.0083,0.0084,0.0084,0,-0.0018,-0.0002,-0.0018,-0.0004,-0.0001,-0.0014,-0.0002,-0.0011,0.0001,-0.0009,-0.001,0.0007,0.0003,0.002,0.0018,0.0027,0.0007,0.0015,0.0005,0.0008,-0.0013,-0.0011,-0.0082,-0.009,-0.002,-0.002,-0.0021,0,-0.0053,-0.0065,-0.0053,-0.0056,-0.0052,-0.0058,-0.0059,-0.0038,-0.0041,-0.0034,-0.0043,-0.0045,-0.0046,-0.0053,-0.0041,-0.0041,-0.0033,-0.0057,-0.0033,-0.0037,-0.0032,-0.0032,-0.0033,-0.0063,-0.0063,-0.0064,-0.0065,0,-0.0117,-0.0109,-0.0111,-0.0111,-0.0113,-0.0112,-0.0109,-0.0113,-0.009,-0.0094,-0.0098,-0.0098,-0.0099,-0.0101,-0.0099,-0.0093,-0.0075,-0.0072,-0.0077,-0.0083,-0.0088,-0.0085,-0.0009,-0.0071,-0.007,-0.007,-0.007,-0.0069,-0.0166,-0.0175,-0.0167,-0.0171,-0.0166,-0.0164,-0.017,-0.0159,-0.0162,-0.0161,-0.0149,-0.0155,-0.0147,-0.0142,-0.0138,-0.0142,-0.013,-0.0137,-0.0138,-0.014,-0.0143,-0.0087,-0.0141,-0.0141,-0.0141,-0.0141,-0.014,0,-0.0229,-0.0222,-0.0225,-0.0222,-0.0224,-0.0206,-0.0202,-0.0205,-0.021,-0.0205,-0.0205,-0.0209,-0.021,-0.0197,-0.0197,-0.0202,-0.0194,-0.0203,-0.0202,-0.0201,-0.0154,-0.015,-0.0209,-0.0209,-0.0209,-0.0209,-0.0209,-0.0209,-0.0262,-0.0276,-0.0266,-0.0277,-0.0269,-0.0275,-0.0274,-0.0271,-0.0266,-0.0271,-0.0272,-0.0263,-0.0254,-0.0253,-0.0253,-0.0249,-0.025,-0.0261,-0.0254,-0.0211,-0.0204,-0.0198,-0.0194,-0.0262,-0.0262,-0.0301,-0.0301,-0.0301]}]]